Tracking 28790 objects as of 18-Apr-2024
HD Live streaming from Space Station
objects crossing your sky now

ARIANE 44L R/B

Track ARIANE 44L R/B now!


NORAD ID: 21815
Int'l Code: 1991-084C
Perigee: 384.8 km
Apogee: 34,917.1 km
Inclination: 3.6 °
Period: 617.5 minutes
Semi major axis: 24021 km
RCS: 32.5196 m2 (large)
Launch date: December 16, 1991
Source: France (FR)
Launch site: FRENCH GUIANA (FRGUI)

Note: This is a ROCKET BODY
Your satellite tracking list
Your tracking list is empty




NASA's NSSDC Master Catalog

Two Line Element Set (TLE):
1 21815U 91084C   24109.19038214  .00001798  00000-0  34539-2 0  9994
2 21815   3.6327 129.6629 7187667 318.5128   5.0451  2.33179845270360
Source of the keplerian elements: AFSPC